sat.trackr.live / text

‹ back to catalog

HULIANWANG DIGUI-50

NORAD 65107 · 2025-168B

PAYLOAD ACTIVE UNKNOWN

§ Identity

Operator
Country
PRC
Launch date
2025-08-04
Launch site
WSC
Launch vehicle
Mass (kg)
RCS (m²)

External: N2YO · Heavens-Above · Gunter

§ Orbital elements

Epoch: 2026-09-21T18:12:40.999968Z

Period
108.33 min
Inclination
50.0021°
Eccentricity
0.0008187
Mean motion
13.29326011 rev/d
Perigee alt
1,143.1 km
Apogee alt
1,155.5 km
Semi-major
7,527.4 km
B*
7.2615e-5
RAAN
339.4283°
Arg perigee
15.8840°
Mean anomaly
344.2287°
Rev number
5,553

§ Raw data

HULIANWANG DIGUI-501 65107U 25168B   26264.75880787 -.00000090  00000+0  72615-4 0  99952 65107  50.0021 339.4283 0008187  15.8840 344.2287 13.29326011 55537

JSON: /api/v1/satellites/65107 · /tle

For live sub-satellite position, see the globe view (requires WebGL).

§ Visibility from observer

Set your observer location to see the next 7 days of passes ≥ 10°. The values pass through the URL so the page stays shareable.

No JS? Fill the form by hand. The geolocation button needs JavaScript.